Location: *
(48.4333°N, 5.0333°W)
Time: 08:40:11
(UTC+00:00)

SJ-6B - Visible Passes

Search period start: 13 August 2020 00:00
Search period end: 23 August 2020 00:00
Orbit: 509 x 582 km, 97.6° (Epoch: 13 August)

Date Brightness Start Highest point End Pass type
(mag) Time Alt. Az. Time Alt. Az. Time Alt. Az.
13 Aug 5.5 21:10:25 10° SW 21:13:12 18° W 21:15:58 10° NW visible
14 Aug 5.3 21:04:31 10° SW 21:07:32 20° W 21:10:32 10° NW visible
15 Aug 5.1 20:58:40 10° SSW 21:01:52 23° W 21:05:04 10° NW visible
16 Aug 4.9 20:52:50 10° SSW 20:56:13 26° W 20:59:33 10° NW visible
17 Aug 4.7 20:47:02 10° SSW 20:50:33 29° W 20:54:01 10° NW visible
18 Aug 4.5 20:41:17 10° SSW 20:44:54 33° W 20:48:29 10° NNW visible
19 Aug 4.2 20:35:33 10° SSW 20:39:15 38° W 20:42:55 10° NNW visible
20 Aug 3.9 20:29:49 10° S 20:33:36 44° W 20:37:20 10° NNW visible
21 Aug 3.6 20:24:07 10° S 20:27:58 51° W 20:31:45 10° NNW visible
22 Aug 3.4 20:18:27 10° S 20:22:19 59° WSW 20:26:08 10° NNW visible
